Location: Caltech
(34.1382°N, 118.1253°W)
Time: 11:41:05
(UTC-08:00)

Daily predictions for brighter satellites

Satellite Brightness Start Highest point End
(mag) Time Altitude Azimuth Time Altitude Azimuth Time Altitude Azimuth
Cosmos 2278 Rocket 3.0 17:06:54 10° SSE 17:11:52 33° ESE 17:16:51 10° NE
COSMOS 2406 3.2 17:11:50 10° NNW 17:17:32 65° ENE 17:23:13 10° SSE
OTV 4 0.6 17:15:16 10° WNW 17:18:14 57° NNE 17:21:11 10° E
Cosmos 1484 Rocket 3.9 17:17:51 10° ESE 17:20:47 22° ENE 17:23:41 10° NNE
SL-8 Rocket 4.0 17:15:16 10° N 17:21:21 61° E 17:27:24 10° SSE
USA 32 4.0 17:16:33 10° S 17:21:43 68° E 17:26:54 10° N
IDEFIX/ARIANE 42P 2.5 17:16:45 10° SSE 17:21:55 69° ENE 17:27:05 10° N
Meteor 1-5 Rocket 4.1 17:22:42 10° N 17:28:09 83° E 17:33:45 10° S
BREEZE M DEB (TANK) 3.7 17:15:25 10° SW 17:29:10 69° SE 17:32:37 13° ENE
SKYMED 2 4.1 17:25:43 10° NNE 17:29:46 38° E 17:33:48 10° SSE
CZ-4 R/B 4.5 17:26:04 10° SSE 17:30:07 57° ENE 17:34:12 10° N
Cosmos 1455 Rocket 3.5 17:27:17 10° N 17:31:27 40° E 17:35:37 10° SSE
Cosmos 2366 rocket 4.1 17:25:18 10° N 17:31:30 53° E 17:37:37 10° SSE
Cosmos 2218 Rocket 4.0 17:27:13 10° N 17:33:27 64° E 17:39:35 10° SSE
Meteor 2-19 Rocket 4.4 17:28:42 10° N 17:34:45 70° E 17:40:46 10° SSE
Cosmos 1959 Rocket 4.4 17:31:11 10° N 17:37:21 69° E 17:43:33 10° SSE
Delta 2 Rocket 4.4 17:36:30 10° SW 17:39:56 31° SSE 17:42:45 15° E
Cosmos 2082 Rocket 3.9 17:37:43 10° NNE 17:39:42 13° NE 17:39:42 13° NE
SL-8 R/B 3.7 17:38:37 10° SW 17:43:23 83° NW 17:47:02 17° NE
Okean 1 3.4 17:41:15 10° S 17:45:12 56° E 17:49:10 10° NNE
Cosmos 1500 4.0 17:45:11 10° NNE 17:48:31 28° E 17:51:52 10° SE
Hubble Space Telescope 3.1 17:45:31 10° WSW 17:48:37 20° SSW 17:51:43 10° SSE
Cosmos 494 Rocket 4.2 17:43:37 10° N 17:48:40 48° ENE 17:53:44 10° SE
NOSS 3-3 (A) 3.9 17:45:04 10° SSW 17:51:09 77° ESE 17:57:10 12° NE
NOSS 3-3 (C) 3.9 17:45:10 10° SSW 17:51:14 76° ESE 17:57:14 12° NE
ISS -0.8 17:50:17 10° WNW 17:52:21 15° NNW 17:54:26 10° N
Meteor 1-28 Rocket 3.8 17:50:04 19° NE 17:52:22 36° E 17:55:52 10° SSE
Meteor 1-18 Rocket 4.5 17:56:10 10° SSW 18:01:44 71° W 18:07:26 10° N
Cosmos 2251 Rocket 3.4 17:57:25 10° NNW 18:02:47 78° ENE 18:08:04 10° SSE
ATLAS 2AS CENTAUR R/B 2.9 17:55:56 10° NNW 18:03:58 69° ENE 18:11:20 10° SE
SL-27 R/B 2.8 18:01:00 10° NNW 18:04:39 70° WSW 18:08:15 10° S
Cosmos 1812 3.6 18:01:18 10° SSW 18:05:02 49° W 18:08:48 10° N
Tiangong 1 1.3 18:02:38 10° SW 18:05:33 48° SSE 18:05:52 45° SE
Cosmos 1346 Rocket 2.7 18:02:04 10° S 18:05:56 64° E 18:08:21 22° NNE
OE (NEXTSAT) 4.4 18:06:47 10° WSW 18:10:21 81° NNW 18:11:16 47° NE
CZ-4 R/B 4.3 18:07:34 10° SW 18:10:44 21° W 18:13:55 10° NW
COSMO-SKYMED 1 3.3 18:13:34 10° N 18:17:49 54° WNW 18:22:02 10° SSW
CZ-3B DEB 3.4 18:14:24 10° W 18:18:05 34° NNW 18:24:12 15° NNE
Nadezhda 3 Rocket 3.9 18:17:30 10° S 18:23:40 83° E 18:29:55 10° N
GEOS 3 Rocket 3.4 18:20:44 10° SE 18:25:49 75° NE 18:30:57 10° NNW
SL-24 R/B - RUBIN 2 4.4 18:19:57 10° SSW 18:26:03 80° ESE 18:29:43 29° NE
Meteor 2-21 4.3 18:21:23 10° N 18:27:36 82° E 18:33:43 10° S
Cosmos 1975 3.5 18:26:43 10° NNW 18:30:42 56° W 18:34:38 10° S
Cosmos 2297 3.6 18:33:29 10° SSW 18:39:08 88° WNW 18:41:27 38° NNE
NOSS 2-1 (D) 4.2 18:45:36 10° SSW 18:48:12 43° SSW 18:48:12 43° SSW
NOSS 2-1 (C) 4.2 18:46:17 10° SSW 18:48:50 41° SSW 18:48:50 41° SSW
OAO 1 4.3 18:45:17 10° W 18:50:46 81° N 18:51:00 78° NE
Meteor 1-19 Rocket 4.3 18:45:28 10° SSW 18:51:12 78° W 18:54:39 26° N
Meteor 2-14 Rocket 4.4 18:45:17 10° N 18:51:28 87° W 18:57:35 10° S
Cosmos 1025 Rocket 4.3 18:50:01 10° S 18:52:20 32° S 18:52:20 32° S
OTV 4 3.3 18:51:53 10° W 18:52:57 18° W 18:52:57 18° W
Cosmos 2278 Rocket 3.9 18:51:03 10° WSW 18:55:53 29° WNW 19:00:22 12° N
Cosmos 921 Rocket 3.9 18:58:48 10° SSW 19:02:14 45° WSW 19:02:14 45° WSW
Cosmos 1371 Rocket 4.5 19:04:35 10° SSW 19:08:45 56° SSW 19:08:45 56° SSW
Cosmos 2082 Rocket 3.7 19:19:18 10° NNW 19:21:38 26° NNW 19:21:38 26° NNW
Timation 2 Rocket 4.3 19:23:02 10° NNW 19:29:51 70° WSW 19:30:03 70° WSW
ATLAS 3B CENTAUR R/B 3.3 19:25:32 10° W 19:37:44 54° SSW 19:37:44 54° SSW
